カタログに戻る

STARLINK-35592

運用中通信VLEO
NORAD 66136·PAYLOAD·🇺🇸 United States

打ち上げ Oct 22, 2025 から Vandenberg Space Force Base

Loading…

次のパス (今後24時間)

TLE

最新Source: CelesTrak SupGP

元期: Sep 14, 2026, 21:10 UTC

1 66136C 25237Y   26257.88243056  .00045916  00000+0  13565-2 0  2572
2 66136  53.1571 237.7424 0001297 100.9684 143.5413 15.34370984    18

AllMySatでSTARLINK-35592をリアルタイム追跡

Download on the App Store